When you browse on this site, cookies collect data to enhance your experience and personalize the content and advertising you see.
Visit our Privacy Policy to learn more. By continuing to use the site, you agree to this use of cookies and data.
  • In Lithuania
  • List of Countries
  • For 7 days
  • Water Temperature
  • Satellite Maps
  • Weather Map
  • Weather Widgets
  • user-avatar
    Login

    Hourly Weather Vezhki

    Today, 24 July, Wednesday

    Time Temperature Precipitation Wind Pressure Humidity
    00:00 +16°C° 0 mm 3 mps 749 mmHg 93%
    01:00 +14°C° 0 mm 3 mps 749 mmHg 93%
    02:00 +14°C° 0 mm 3 mps 749 mmHg 94%
    03:00 +14°C° 0 mm 3 mps 749 mmHg 94%
    04:00 +13°C° 0 mm 3 mps 749 mmHg 93%
    05:00 +13°C° 0 mm 3 mps 749 mmHg 93%
    06:00 +14°C° 0 mm 3 mps 749 mmHg 87%
    07:00 +17°C° 0 mm 3 mps 749 mmHg 81%
    08:00 +19°C° 0 mm 3 mps 749 mmHg 76%
    09:00 +20°C° 0 mm 3 mps 749 mmHg 70%
    10:00 +22°C° 0 mm 3 mps 749 mmHg 64%
    11:00 +25°C° 0 mm 4 mps 749 mmHg 58%
    12:00 +25°C° 0.1 mm 4 mps 749 mmHg 57%
    13:00 +26°C° 0.1 mm 4 mps 749 mmHg 56%
    14:00 +26°C° 0.1 mm 4 mps 749 mmHg 55%
    15:00 +26°C° 0.6 mm 4 mps 749 mmHg 60%
    16:00 +25°C° 0.6 mm 4 mps 749 mmHg 65%
    17:00 +25°C° 0.6 mm 3 mps 749 mmHg 70%
    18:00 +22°C° 0.2 mm 3 mps 749 mmHg 75%
    19:00 +21°C° 0.2 mm 3 mps 749 mmHg 80%
    20:00 +20°C° 0.2 mm 2 mps 749 mmHg 85%
    21:00 +19°C° 0 mm 2 mps 749 mmHg 87%
    22:00 +19°C° 0 mm 2 mps 749 mmHg 89%
    23:00 +18°C° 0 mm 2 mps 750 mmHg 91%

    Tomorrow, 25 July, Thursday

    Time Temperature Precipitation Wind Pressure Humidity
    00:00 +17°C° 0 mm 2 mps 750 mmHg 92%
    01:00 +17°C° 0 mm 2 mps 750 mmHg 92%
    02:00 +18°C° 0 mm 1 mps 750 mmHg 93%
    03:00 +18°C° 0 mm 1 mps 750 mmHg 93%
    04:00 +16°C° 0 mm 1 mps 750 mmHg 94%
    05:00 +16°C° 0 mm 1 mps 750 mmHg 94%
    06:00 +18°C° 0 mm 1 mps 750 mmHg 88%
    07:00 +19°C° 0 mm 2 mps 750 mmHg 83%
    08:00 +20°C° 0 mm 2 mps 750 mmHg 77%
    09:00 +23°C° 0 mm 2 mps 750 mmHg 69%
    10:00 +25°C° 0 mm 2 mps 750 mmHg 62%
    11:00 +26°C° 0 mm 2 mps 750 mmHg 54%
    12:00 +27°C° 0 mm 3 mps 749 mmHg 52%
    13:00 +27°C° 0 mm 3 mps 749 mmHg 50%
    14:00 +28°C° 0 mm 3 mps 749 mmHg 48%
    15:00 +27°C° 0.4 mm 4 mps 748 mmHg 54%
    16:00 +26°C° 0.4 mm 5 mps 748 mmHg 59%
    17:00 +25°C° 0.4 mm 5 mps 748 mmHg 65%
    18:00 +23°C° 0 mm 4 mps 748 mmHg 69%
    19:00 +22°C° 0 mm 3 mps 748 mmHg 72%
    20:00 +21°C° 0 mm 3 mps 748 mmHg 76%
    21:00 +20°C° 0 mm 3 mps 748 mmHg 79%
    22:00 +19°C° 0 mm 3 mps 748 mmHg 82%
    23:00 +18°C° 0 mm 3 mps 748 mmHg 86%

    Day after tomorrow, 26 July, Friday

    Time Temperature Precipitation Wind Pressure Humidity
    00:00 +17°C° 0 mm 3 mps 748 mmHg 88%
    01:00 +17°C° 0 mm 2 mps 748 mmHg 90%
    02:00 +17°C° 0 mm 2 mps 747 mmHg 93%
    03:00 +16°C° 0 mm 2 mps 747 mmHg 94%
    04:00 +16°C° 0 mm 2 mps 747 mmHg 95%
    05:00 +15°C° 0 mm 2 mps 747 mmHg 96%
    06:00 +17°C° 0 mm 3 mps 747 mmHg 89%
    07:00 +18°C° 0 mm 3 mps 747 mmHg 82%
    08:00 +19°C° 0 mm 3 mps 747 mmHg 76%
    09:00 +20°C° 0.1 mm 4 mps 747 mmHg 71%
    10:00 +22°C° 0.1 mm 4 mps 747 mmHg 66%
    11:00 +23°C° 0.1 mm 4 mps 747 mmHg 61%
    12:00 +23°C° 0.6 mm 4 mps 747 mmHg 62%
    13:00 +23°C° 0.6 mm 5 mps 747 mmHg 64%
    14:00 +25°C° 0.6 mm 5 mps 747 mmHg 65%
    15:00 +23°C° 0.3 mm 5 mps 746 mmHg 65%
    16:00 +23°C° 0.3 mm 5 mps 746 mmHg 66%
    17:00 +23°C° 0.3 mm 5 mps 746 mmHg 67%
    18:00 +22°C° 0.1 mm 5 mps 746 mmHg 72%
    19:00 +21°C° 0.1 mm 4 mps 746 mmHg 78%
    20:00 +20°C° 0.1 mm 4 mps 746 mmHg 84%
    21:00 +19°C° 0 mm 3 mps 746 mmHg 88%
    22:00 +18°C° 0 mm 3 mps 746 mmHg 91%
    23:00 +17°C° 0 mm 3 mps 746 mmHg 95%

    27 July, Saturday

    Time Temperature Precipitation Wind Pressure Humidity
    00:00 +16°C° 0 mm 3 mps 746 mmHg 95%
    01:00 +16°C° 0 mm 3 mps 746 mmHg 96%
    02:00 +16°C° 0 mm 3 mps 746 mmHg 97%
    03:00 +16°C° 0 mm 3 mps 745 mmHg 97%
    04:00 +16°C° 0 mm 3 mps 745 mmHg 97%
    05:00 +16°C° 0 mm 3 mps 745 mmHg 98%
    06:00 +17°C° 0 mm 3 mps 745 mmHg 95%
    07:00 +17°C° 0 mm 3 mps 745 mmHg 93%
    08:00 +18°C° 0 mm 3 mps 745 mmHg 90%
    09:00 +20°C° 0.1 mm 3 mps 745 mmHg 86%
    10:00 +21°C° 0.1 mm 2 mps 745 mmHg 81%
    11:00 +23°C° 0.1 mm 2 mps 745 mmHg 77%
    12:00 +24°C° 0.6 mm 3 mps 745 mmHg 74%
    13:00 +25°C° 0.6 mm 4 mps 745 mmHg 72%
    14:00 +26°C° 0.6 mm 5 mps 745 mmHg 70%
    15:00 +26°C° 0.5 mm 5 mps 744 mmHg 70%
    16:00 +26°C° 0.5 mm 5 mps 744 mmHg 69%
    17:00 +26°C° 0.5 mm 5 mps 744 mmHg 68%
    18:00 +25°C° 0.1 mm 5 mps 744 mmHg 73%
    19:00 +23°C° 0.1 mm 4 mps 744 mmHg 78%
    20:00 +22°C° 0.1 mm 4 mps 743 mmHg 83%
    21:00 +21°C° 0 mm 4 mps 744 mmHg 86%
    22:00 +20°C° 0 mm 4 mps 744 mmHg 89%
    23:00 +20°C° 0 mm 4 mps 744 mmHg 92%

    28 July, Sunday

    Time Temperature Precipitation Wind Pressure Humidity
    00:00 +19°C° 0 mm 4 mps 744 mmHg 93%
    01:00 +19°C° 0 mm 4 mps 744 mmHg 94%
    02:00 +18°C° 0 mm 4 mps 744 mmHg 95%
    03:00 +18°C° 0 mm 3 mps 744 mmHg 95%
    04:00 +18°C° 0 mm 3 mps 744 mmHg 96%
    05:00 +17°C° 0 mm 3 mps 744 mmHg 96%
    06:00 +19°C° 0 mm 3 mps 744 mmHg 91%
    07:00 +20°C° 0 mm 3 mps 744 mmHg 86%
    08:00 +21°C° 0 mm 4 mps 744 mmHg 81%
    09:00 +23°C° 0 mm 4 mps 744 mmHg 74%
    10:00 +26°C° 0 mm 4 mps 745 mmHg 67%
    11:00 +27°C° 0 mm 4 mps 745 mmHg 60%
    12:00 +28°C° 0.1 mm 4 mps 744 mmHg 57%
    13:00 +29°C° 0.1 mm 4 mps 744 mmHg 55%
    14:00 +29°C° 0.1 mm 4 mps 744 mmHg 52%
    15:00 +29°C° 0 mm 5 mps 744 mmHg 53%
    16:00 +29°C° 0 mm 5 mps 744 mmHg 55%
    17:00 +29°C° 0 mm 5 mps 744 mmHg 56%
    18:00 +27°C° 0.2 mm 4 mps 744 mmHg 64%
    19:00 +25°C° 0.2 mm 3 mps 744 mmHg 73%
    20:00 +24°C° 0.2 mm 3 mps 743 mmHg 81%
    21:00 +22°C° 0.1 mm 3 mps 744 mmHg 84%
    22:00 +21°C° 0.1 mm 3 mps 744 mmHg 87%
    23:00 +20°C° 0.1 mm 3 mps 744 mmHg 91%

    29 July, Monday

    Time Temperature Precipitation Wind Pressure Humidity
    00:00 +19°C° 0 mm 3 mps 744 mmHg 92%
    01:00 +19°C° 0 mm 3 mps 744 mmHg 93%
    02:00 +18°C° 0 mm 3 mps 744 mmHg 94%
    03:00 +17°C° 0 mm 3 mps 745 mmHg 94%
    04:00 +17°C° 0 mm 3 mps 745 mmHg 94%
    05:00 +16°C° 0 mm 3 mps 745 mmHg 94%
    06:00 +17°C° 0 mm 3 mps 745 mmHg 90%
    07:00 +18°C° 0 mm 3 mps 745 mmHg 86%
    08:00 +19°C° 0 mm 4 mps 746 mmHg 82%
    09:00 +20°C° 0 mm 4 mps 746 mmHg 74%
    10:00 +21°C° 0 mm 4 mps 746 mmHg 66%
    11:00 +22°C° 0 mm 4 mps 747 mmHg 57%
    12:00 +23°C° 0 mm 4 mps 747 mmHg 56%
    13:00 +23°C° 0 mm 4 mps 747 mmHg 55%
    14:00 +23°C° 0 mm 4 mps 747 mmHg 53%
    15:00 +23°C° 0 mm 4 mps 747 mmHg 53%
    16:00 +23°C° 0 mm 4 mps 747 mmHg 53%
    17:00 +22°C° 0 mm 4 mps 747 mmHg 53%
    18:00 +21°C° 0 mm 4 mps 747 mmHg 59%
    19:00 +19°C° 0 mm 4 mps 747 mmHg 65%
    20:00 +18°C° 0 mm 3 mps 748 mmHg 70%
    21:00 +17°C° 0 mm 3 mps 748 mmHg 73%
    22:00 +14°C° 0 mm 3 mps 748 mmHg 75%
    23:00 +13°C° 0 mm 3 mps 749 mmHg 78%
    Show more